Time,TemperatureF,DewpointF,PressureIn,WindDirection,WindDirectionDegrees,WindSpeedMPH,WindSpeedGustMPH,Humidity,HourlyPrecipIn,Conditions,Clouds,dailyrainin,SoftwareType,DateUTC
2013-01-06 00:00:00,9.7,5.1,30.18,NW,319,7.0,8.4,81,0.00,,CLR,0.00,VWS V14.01,2013-01-06 06:00:00,
2013-01-06 00:10:00,9.8,5.4,30.18,WNW,293,4.0,9.4,82,0.00,,CLR,0.00,VWS V14.01,2013-01-06 06:10:00,
2013-01-06 00:20:00,9.9,5.2,30.18,NW,309,5.0,11.5,81,0.00,,CLR,0.00,VWS V14.01,2013-01-06 06:20:00,
2013-01-06 00:30:00,9.5,5.1,30.18,NW,310,6.0,8.4,82,0.00,,CLR,0.00,VWS V14.01,2013-01-06 06:30:00,
2013-01-06 00:40:00,9.1,5.0,30.18,WNW,302,3.0,6.3,83,0.00,,CLR,0.00,VWS V14.01,2013-01-06 06:40:00,
2013-01-06 00:50:00,8.5,4.4,30.18,WNW,292,2.0,4.2,83,0.00,,CLR,0.00,VWS V14.01,2013-01-06 06:50:00,
2013-01-06 01:00:00,8.2,4.1,30.18,WNW,291,2.0,3.1,83,0.00,,CLR,0.00,VWS V14.01,2013-01-06 07:00:00,
2013-01-06 01:10:00,8.2,4.1,30.18,WNW,291,2.0,2.1,83,0.00,,CLR,0.00,VWS V14.01,2013-01-06 07:10:00,
2013-01-06 01:20:00,8.2,4.1,30.18,WNW,291,2.0,2.1,83,0.00,,CLR,0.00,VWS V14.01,2013-01-06 07:20:00,
2013-01-06 01:30:00,8.2,4.1,30.18,WNW,291,2.0,2.1,83,0.00,,CLR,0.00,VWS V14.01,2013-01-06 07:30:00,
2013-01-06 01:40:00,6.5,3.5,30.19,WNW,299,1.0,2.1,87,0.00,,CLR,0.00,VWS V14.01,2013-01-06 07:40:00,
2013-01-06 01:50:00,7.0,4.4,30.19,WNW,292,0.0,3.1,89,0.00,,CLR,0.00,VWS V14.01,2013-01-06 07:50:00,
2013-01-06 02:00:00,6.6,3.8,30.20,WNW,294,0.0,3.1,88,0.00,,CLR,0.00,VWS V14.01,2013-01-06 08:00:00,
2013-01-06 02:10:00,6.2,3.4,30.20,WNW,288,1.0,4.2,88,0.00,,CLR,0.00,VWS V14.01,2013-01-06 08:10:00,
2013-01-06 02:20:00,6.2,3.7,30.20,WNW,284,2.0,4.2,89,0.00,,CLR,0.00,VWS V14.01,2013-01-06 08:20:00,
2013-01-06 02:30:00,6.1,3.6,30.21,WNW,285,2.0,3.1,89,0.00,,CLR,0.00,VWS V14.01,2013-01-06 08:30:00,
2013-01-06 02:40:00,5.6,2.8,30.22,WNW,285,2.0,3.1,88,0.00,,CLR,0.00,VWS V14.01,2013-01-06 08:40:00,
2013-01-06 02:50:00,5.9,3.4,30.22,WNW,285,0.0,2.1,89,0.00,,CLR,0.00,VWS V14.01,2013-01-06 08:50:00,
2013-01-06 03:00:00,7.4,5.3,30.22,WNW,286,1.0,3.1,91,0.00,,CLR,0.00,VWS V14.01,2013-01-06 09:00:00,
2013-01-06 03:10:00,8.6,6.5,30.22,WNW,300,0.0,5.2,91,0.00,,SCT060,0.00,VWS V14.01,2013-01-06 09:10:00,
2013-01-06 03:20:00,9.0,6.7,30.21,West,281,0.0,3.1,90,0.00,,SCT060,0.00,VWS V14.01,2013-01-06 09:20:00,
2013-01-06 03:30:00,9.4,7.1,30.21,West,281,0.0,3.1,90,0.00,,OVC060,0.00,VWS V14.01,2013-01-06 09:30:00,
2013-01-06 03:40:00,9.6,7.3,30.20,WNW,287,0.0,5.2,90,0.00,,OVC060,0.00,VWS V14.01,2013-01-06 09:40:00,
2013-01-06 03:50:00,9.9,7.6,30.22,NW,309,4.0,6.3,90,0.00,,OVC007,0.00,VWS V14.01,2013-01-06 09:50:00,
2013-01-06 04:00:00,10.2,8.1,30.23,NW,304,1.0,6.3,91,0.00,,OVC007,0.00,VWS V14.01,2013-01-06 10:00:00,
2013-01-06 04:10:00,10.2,8.1,30.22,NW,304,1.0,1.0,91,0.00,,OVC065,0.00,VWS V14.01,2013-01-06 10:10:00,
2013-01-06 04:20:00,10.2,8.1,30.22,NW,304,1.0,1.0,91,0.00,,OVC065,0.00,VWS V14.01,2013-01-06 10:20:00,
2013-01-06 04:30:00,10.2,8.1,30.22,NW,304,1.0,1.0,91,0.00,,OVC065,0.00,VWS V14.01,2013-01-06 10:30:00,
2013-01-06 04:40:00,10.2,8.1,30.22,NW,304,1.0,1.0,91,0.00,,OVC065,0.00,VWS V14.01,2013-01-06 10:40:00,
2013-01-06 04:50:00,11.2,8.9,30.23,WNW,302,2.0,3.1,90,0.00,,OVC065,0.00,VWS V14.01,2013-01-06 10:50:00,
2013-01-06 05:00:00,11.3,8.9,30.22,NW,306,0.0,4.2,90,0.00,,OVC065,0.00,VWS V14.01,2013-01-06 11:00:00,
2013-01-06 05:10:00,11.5,9.1,30.22,NW,306,0.0,3.1,90,0.00,,OVC065,0.00,VWS V14.01,2013-01-06 11:10:00,
2013-01-06 05:20:00,11.5,9.1,30.22,NW,306,0.0,0.0,90,0.00,,OVC065,0.00,VWS V14.01,2013-01-06 11:20:00,
2013-01-06 05:30:00,11.5,9.1,30.22,NW,306,0.0,0.0,90,0.00,,OVC075,0.00,VWS V14.01,2013-01-06 11:30:00,
2013-01-06 05:40:00,11.8,9.4,30.22,West,277,1.0,1.0,90,0.00,,OVC075,0.00,VWS V14.01,2013-01-06 11:40:00,
2013-01-06 05:50:00,12.0,9.9,30.22,WNW,283,0.0,5.2,91,0.00,,OVC075,0.00,VWS V14.01,2013-01-06 11:50:00,
2013-01-06 06:00:00,12.1,10.0,30.22,West,281,0.0,3.1,91,0.00,,OVC065,0.00,VWS V14.01,2013-01-06 12:00:00,
2013-01-06 06:10:00,12.1,10.0,30.22,West,277,1.0,4.2,91,0.00,,BKN065,0.00,VWS V14.01,2013-01-06 12:10:00,
2013-01-06 06:20:00,12.1,10.0,30.23,WSW,253,5.0,7.3,91,0.00,,BKN065,0.00,VWS V14.01,2013-01-06 12:20:00,
2013-01-06 06:30:00,12.0,9.9,30.23,WNW,290,5.0,7.3,91,0.00,,SCT065,0.00,VWS V14.01,2013-01-06 12:30:00,
2013-01-06 06:40:00,12.1,10.0,30.24,WNW,283,3.0,7.3,91,0.00,,SCT065,0.00,VWS V14.01,2013-01-06 12:40:00,
2013-01-06 06:50:00,12.3,10.4,30.25,WNW,289,0.0,4.2,92,0.00,,CLR,0.00,VWS V14.01,2013-01-06 12:50:00,
2013-01-06 07:00:00,12.6,10.7,30.26,NW,311,0.0,2.1,92,0.00,,CLR,0.00,VWS V14.01,2013-01-06 13:00:00,
2013-01-06 07:10:00,13.0,11.1,30.26,NNW,348,2.0,4.2,92,0.00,,CLR,0.00,VWS V14.01,2013-01-06 13:10:00,
2013-01-06 07:20:00,13.1,11.2,30.26,NNW,348,0.0,2.1,92,0.00,,CLR,0.00,VWS V14.01,2013-01-06 13:20:00,
2013-01-06 07:30:00,13.1,11.5,30.26,NNW,348,0.0,0.0,93,0.00,,CLR,0.00,VWS V14.01,2013-01-06 13:30:00,
2013-01-06 07:40:00,13.1,11.5,30.27,NNW,348,0.0,2.1,93,0.00,,CLR,0.00,VWS V14.01,2013-01-06 13:40:00,
2013-01-06 07:50:00,12.9,11.3,30.26,WNW,296,0.0,2.1,93,0.00,,CLR,0.00,VWS V14.01,2013-01-06 13:50:00,
2013-01-06 08:00:00,12.8,11.2,30.26,WNW,296,0.0,0.0,93,0.00,,CLR,0.00,VWS V14.01,2013-01-06 14:00:00,
2013-01-06 08:10:00,12.9,11.3,30.26,North,355,0.0,1.0,93,0.00,,CLR,0.00,VWS V14.01,2013-01-06 14:10:00,
2013-01-06 08:20:00,13.0,11.4,30.26,North,355,0.0,0.0,93,0.00,,CLR,0.00,VWS V14.01,2013-01-06 14:20:00,
2013-01-06 08:30:00,13.0,11.1,30.26,North,355,0.0,0.0,92,0.00,,CLR,0.00,VWS V14.01,2013-01-06 14:30:00,
2013-01-06 08:40:00,12.9,11.0,30.27,WSW,252,0.0,0.0,92,0.00,,CLR,0.00,VWS V14.01,2013-01-06 14:40:00,
2013-01-06 08:50:00,12.9,11.3,30.28,WSW,252,0.0,0.0,93,0.00,,CLR,0.00,VWS V14.01,2013-01-06 14:50:00,
2013-01-06 09:00:00,13.1,11.5,30.28,NNW,331,0.0,0.0,93,0.00,,CLR,0.00,VWS V14.01,2013-01-06 15:00:00,
2013-01-06 09:10:00,13.1,11.2,30.28,NNW,333,0.0,1.0,92,0.00,,CLR,0.00,VWS V14.01,2013-01-06 15:10:00,
2013-01-06 09:20:00,13.4,11.8,30.28,WNW,299,0.0,1.0,93,0.00,,CLR,0.00,VWS V14.01,2013-01-06 15:20:00,
2013-01-06 09:30:00,13.2,11.3,30.28,WNW,298,0.0,1.0,92,0.00,,CLR,0.00,VWS V14.01,2013-01-06 15:30:00,
2013-01-06 09:40:00,13.4,11.8,30.28,WNW,298,0.0,0.0,93,0.00,,CLR,0.00,VWS V14.01,2013-01-06 15:40:00,
2013-01-06 09:50:00,13.8,12.1,30.28,WNW,298,0.0,0.0,93,0.00,,CLR,0.00,VWS V14.01,2013-01-06 15:50:00,
2013-01-06 10:00:00,13.8,11.9,30.28,SSE,163,0.0,3.1,92,0.00,,CLR,0.00,VWS V14.01,2013-01-06 16:00:00,
2013-01-06 10:10:00,13.5,11.6,30.29,South,188,7.0,8.4,92,0.00,,CLR,0.00,VWS V14.01,2013-01-06 16:10:00,
2013-01-06 10:40:00,13.3,11.4,30.29,South,182,1.0,7.3,92,0.00,,CLR,0.00,VWS V14.01,2013-01-06 16:40:00,
2013-01-06 10:50:00,13.2,11.3,30.29,South,188,5.0,8.4,92,0.00,,CLR,0.00,VWS V14.01,2013-01-06 16:50:00,
2013-01-06 11:00:00,13.4,11.8,30.30,South,188,5.0,7.3,93,0.00,,CLR,0.00,VWS V14.01,2013-01-06 17:00:00,
2013-01-06 11:10:00,13.8,12.1,30.30,South,190,8.0,8.4,93,0.00,,CLR,0.00,VWS V14.01,2013-01-06 17:10:00,
2013-01-06 11:20:00,14.2,12.6,30.30,South,177,2.0,9.4,93,0.00,,CLR,0.00,VWS V14.01,2013-01-06 17:20:00,
2013-01-06 11:30:00,14.2,12.3,30.29,South,175,5.0,8.4,92,0.00,,CLR,0.00,VWS V14.01,2013-01-06 17:30:00,
2013-01-06 11:40:00,14.2,12.3,30.28,SSE,156,5.0,6.3,92,0.00,,CLR,0.00,VWS V14.01,2013-01-06 17:40:00,
2013-01-06 11:50:00,14.5,12.6,30.28,South,176,2.0,5.2,92,0.00,,CLR,0.00,VWS V14.01,2013-01-06 17:50:00,
2013-01-06 12:00:00,14.9,13.0,30.27,SSE,158,3.0,5.2,92,0.00,,CLR,0.00,VWS V14.01,2013-01-06 18:00:00,
2013-01-06 12:10:00,14.9,13.0,30.27,South,169,1.0,5.2,92,0.00,,CLR,0.00,VWS V14.01,2013-01-06 18:10:00,
2013-01-06 12:20:00,15.2,13.3,30.27,SSE,168,3.0,5.2,92,0.00,,CLR,0.00,VWS V14.01,2013-01-06 18:20:00,
2013-01-06 12:30:00,15.2,13.3,30.27,South,181,5.0,7.3,92,0.00,,CLR,0.00,VWS V14.01,2013-01-06 18:30:00,
2013-01-06 12:40:00,14.8,12.6,30.26,South,188,7.0,8.4,91,0.00,,CLR,0.00,VWS V14.01,2013-01-06 18:40:00,
2013-01-06 12:50:00,15.2,13.1,30.25,South,169,3.0,8.4,91,0.00,,CLR,0.00,VWS V14.01,2013-01-06 18:50:00,
2013-01-06 13:00:00,15.6,13.2,30.25,South,183,3.0,6.3,90,0.00,,CLR,0.00,VWS V14.01,2013-01-06 19:00:00,
2013-01-06 13:10:00,15.8,13.1,30.24,South,182,6.0,7.3,89,0.00,,CLR,0.00,VWS V14.01,2013-01-06 19:10:00,
2013-01-06 13:20:00,16.4,13.5,30.23,South,171,1.0,6.3,88,0.00,,CLR,0.00,VWS V14.01,2013-01-06 19:20:00,
2013-01-06 13:30:00,16.6,13.1,30.23,SSE,162,3.0,5.2,86,0.00,,CLR,0.00,VWS V14.01,2013-01-06 19:30:00,
2013-01-06 13:40:00,16.3,13.1,30.22,SSE,148,5.0,7.3,87,0.00,,,0.00,VWS V14.01,2013-01-06 19:40:00,
2013-01-06 13:50:00,16.2,12.8,30.23,SSE,163,3.0,6.3,86,0.00,,CLR,0.00,VWS V14.01,2013-01-06 19:50:00,
2013-01-06 14:00:00,16.8,13.4,30.23,South,169,3.0,8.4,86,0.00,,,0.00,VWS V14.01,2013-01-06 20:00:00,
2013-01-06 14:10:00,17.0,13.5,30.24,South,182,5.0,8.4,86,0.00,,CLR,0.00,VWS V14.01,2013-01-06 20:10:00,
2013-01-06 14:20:00,17.0,13.5,30.23,South,169,3.0,10.5,86,0.00,,CLR,0.00,VWS V14.01,2013-01-06 20:20:00,
2013-01-06 14:30:00,17.4,13.7,30.22,SE,146,6.0,8.4,85,0.00,,CLR,0.00,VWS V14.01,2013-01-06 20:30:00,
2013-01-06 14:40:00,16.9,13.4,30.22,SSE,167,3.0,8.4,86,0.00,,CLR,0.00,VWS V14.01,2013-01-06 20:40:00,
2013-01-06 14:50:00,17.2,13.5,30.22,SE,143,5.0,6.3,85,0.00,,CLR,0.00,VWS V14.01,2013-01-06 20:50:00,
2013-01-06 15:00:00,17.0,13.5,30.21,SSE,153,7.0,7.3,86,0.00,,CLR,0.00,VWS V14.01,2013-01-06 21:00:00,
2013-01-06 15:10:00,17.0,13.3,30.22,SSE,161,8.0,8.4,85,0.00,,CLR,0.00,VWS V14.01,2013-01-06 21:10:00,
2013-01-06 15:20:00,17.1,13.4,30.22,SSE,163,6.0,8.4,85,0.00,,CLR,0.00,VWS V14.01,2013-01-06 21:20:00,
2013-01-06 15:30:00,17.1,13.4,30.21,SSE,160,5.0,9.4,85,0.00,,CLR,0.00,VWS V14.01,2013-01-06 21:30:00,
2013-01-06 15:40:00,16.9,13.2,30.22,SSE,165,3.0,8.4,85,0.00,,CLR,0.00,VWS V14.01,2013-01-06 21:40:00,
2013-01-06 15:50:00,16.8,13.1,30.21,SSE,161,5.0,7.3,85,0.00,,CLR,0.00,VWS V14.01,2013-01-06 21:50:00,
2013-01-06 16:00:00,16.2,12.5,30.21,SSE,155,5.0,9.4,85,0.00,,CLR,0.00,VWS V14.01,2013-01-06 22:00:00,
2013-01-06 16:10:00,15.4,12.0,30.21,SSE,148,6.0,9.4,86,0.00,,CLR,0.00,VWS V14.01,2013-01-06 22:10:00,
2013-01-06 16:20:00,14.9,11.7,30.21,SE,146,6.0,8.4,87,0.00,,CLR,0.00,VWS V14.01,2013-01-06 22:20:00,
2013-01-06 16:30:00,15.0,11.8,30.21,SE,144,6.0,7.3,87,0.00,,CLR,0.00,VWS V14.01,2013-01-06 22:30:00,
2013-01-06 16:40:00,14.2,11.3,30.21,SSE,162,7.0,7.3,88,0.00,,CLR,0.00,VWS V14.01,2013-01-06 22:40:00,
2013-01-06 16:50:00,14.2,11.3,30.21,SSE,160,7.0,8.4,88,0.00,,CLR,0.00,VWS V14.01,2013-01-06 22:50:00,
2013-01-06 17:00:00,14.2,11.3,30.20,SSE,158,7.0,8.4,88,0.00,,CLR,0.00,VWS V14.01,2013-01-06 23:00:00,
2013-01-06 17:10:00,14.1,11.2,30.20,SSE,159,5.0,8.4,88,0.00,,CLR,0.00,VWS V14.01,2013-01-06 23:10:00,
2013-01-06 17:20:00,14.0,11.1,30.20,SSE,163,4.0,8.4,88,0.00,,CLR,0.00,VWS V14.01,2013-01-06 23:20:00,
2013-01-06 17:30:00,13.9,11.3,30.20,SSE,159,6.0,8.4,89,0.00,,CLR,0.00,VWS V14.01,2013-01-06 23:30:00,
2013-01-06 17:40:00,14.1,11.5,30.19,SSE,148,8.0,10.5,89,0.00,,CLR,0.00,VWS V14.01,2013-01-06 23:40:00,
2013-01-06 17:50:00,14.0,11.4,30.19,SE,146,7.0,10.5,89,0.00,,CLR,0.00,VWS V14.01,2013-01-06 23:50:00,
2013-01-06 18:00:00,13.7,11.1,30.18,SE,136,8.0,10.5,89,0.00,,CLR,0.00,VWS V14.01,2013-01-07 00:00:00,
2013-01-06 18:10:00,13.3,10.7,30.17,SE,136,8.0,10.5,89,0.00,,CLR,0.00,VWS V14.01,2013-01-07 00:10:00,
2013-01-06 18:20:00,13.7,11.1,30.17,SE,138,9.0,10.5,89,0.00,,CLR,0.00,VWS V14.01,2013-01-07 00:20:00,
2013-01-06 18:30:00,13.6,11.0,30.17,SE,146,9.0,10.5,89,0.00,,CLR,0.00,VWS V14.01,2013-01-07 00:30:00,
2013-01-06 18:40:00,14.0,11.6,30.17,SE,146,10.0,11.5,90,0.00,,CLR,0.00,VWS V14.01,2013-01-07 00:40:00,
2013-01-06 18:50:00,14.4,12.0,30.16,SE,145,10.0,13.6,90,0.00,,CLR,0.00,VWS V14.01,2013-01-07 00:50:00,
2013-01-06 19:00:00,14.7,12.3,30.15,SE,144,17.0,17.8,90,0.00,,CLR,0.00,VWS V14.01,2013-01-07 01:00:00,
2013-01-06 19:10:00,15.3,12.9,30.14,SE,141,12.0,16.8,90,0.00,,CLR,0.00,VWS V14.01,2013-01-07 01:10:00,
2013-01-06 19:20:00,15.4,13.0,30.13,SE,144,12.0,17.8,90,0.00,,CLR,0.00,VWS V14.01,2013-01-07 01:20:00,
2013-01-06 19:30:00,16.1,13.7,30.13,SSE,159,13.0,19.9,90,0.00,,CLR,0.00,VWS V14.01,2013-01-07 01:30:00,
2013-01-06 19:40:00,16.2,13.5,30.11,SSE,148,15.0,19.9,89,0.00,,CLR,0.00,VWS V14.01,2013-01-07 01:40:00,
2013-01-06 19:50:00,16.2,13.5,30.10,SE,144,17.0,19.9,89,0.00,,CLR,0.00,VWS V14.01,2013-01-07 01:50:00,
2013-01-06 20:00:00,16.5,13.8,30.10,SSE,161,10.0,17.8,89,0.00,,CLR,0.00,VWS V14.01,2013-01-07 02:00:00,
2013-01-06 20:10:00,16.4,13.7,30.08,SSE,151,16.0,24.1,89,0.00,,CLR,0.00,VWS V14.01,2013-01-07 02:10:00,
2013-01-06 20:20:00,16.2,13.8,30.08,SSE,167,14.0,21.0,90,0.00,,CLR,0.00,VWS V14.01,2013-01-07 02:20:00,
2013-01-06 20:30:00,16.1,13.4,30.07,SSE,159,16.0,18.9,89,0.00,,CLR,0.00,VWS V14.01,2013-01-07 02:30:00,
2013-01-06 20:40:00,16.4,14.0,30.06,SSE,149,19.0,23.1,90,0.00,,CLR,0.00,VWS V14.01,2013-01-07 02:40:00,
2013-01-06 20:50:00,16.4,14.0,30.06,SSE,157,17.0,22.0,90,0.00,,CLR,0.00,VWS V14.01,2013-01-07 02:50:00,
2013-01-06 21:00:00,16.4,14.0,30.05,SSE,163,15.0,21.0,90,0.00,,CLR,0.00,VWS V14.01,2013-01-07 03:00:00,
2013-01-06 21:10:00,16.5,14.1,30.04,SE,146,19.0,19.9,90,0.00,,CLR,0.00,VWS V14.01,2013-01-07 03:10:00,
2013-01-06 21:20:00,16.6,14.2,30.04,SSE,155,14.0,22.0,90,0.00,,CLR,0.00,VWS V14.01,2013-01-07 03:20:00,
2013-01-06 21:30:00,16.8,14.4,30.03,SSE,155,16.0,21.0,90,0.00,,CLR,0.00,VWS V14.01,2013-01-07 03:30:00,
2013-01-06 21:40:00,16.9,14.5,30.02,SSE,149,15.0,22.0,90,0.00,,CLR,0.00,VWS V14.01,2013-01-07 03:40:00,
2013-01-06 21:50:00,17.0,14.6,30.01,SSE,161,16.0,19.9,90,0.00,,CLR,0.00,VWS V14.01,2013-01-07 03:50:00,
2013-01-06 22:00:00,17.2,14.8,30.00,SSE,153,20.0,24.1,90,0.00,,CLR,0.00,VWS V14.01,2013-01-07 04:00:00,
2013-01-06 22:10:00,17.4,15.0,30.00,SE,146,18.0,23.1,90,0.00,,CLR,0.00,VWS V14.01,2013-01-07 04:10:00,
2013-01-06 22:20:00,17.7,15.3,29.99,SE,144,15.0,24.1,90,0.00,,CLR,0.00,VWS V14.01,2013-01-07 04:20:00,
2013-01-06 22:30:00,19.1,16.4,29.97,SSE,166,15.0,25.2,89,0.00,,CLR,0.00,VWS V14.01,2013-01-07 04:30:00,
2013-01-06 22:40:00,19.8,17.1,29.97,SSE,166,15.0,28.3,89,0.00,,CLR,0.00,VWS V14.01,2013-01-07 04:40:00,
2013-01-06 22:50:00,19.8,16.8,29.95,SSE,148,17.0,23.1,88,0.00,,CLR,0.00,VWS V14.01,2013-01-07 04:50:00,
2013-01-06 23:00:00,20.1,17.1,29.95,SSE,162,14.0,24.1,88,0.00,,,0.00,VWS V14.01,2013-01-07 05:00:00,
2013-01-06 23:10:00,21.4,18.4,29.94,SSE,158,17.0,23.1,88,0.00,,CLR,0.00,VWS V14.01,2013-01-07 05:10:00,
2013-01-06 23:20:00,23.1,19.5,29.94,SSE,163,13.0,23.1,86,0.00,,CLR,0.00,VWS V14.01,2013-01-07 05:20:00,
2013-01-06 23:30:00,23.1,19.3,29.94,SSE,167,14.0,22.0,85,0.00,,CLR,0.00,VWS V14.01,2013-01-07 05:30:00,
2013-01-06 23:40:00,23.8,20.0,29.94,South,172,10.0,16.8,85,0.00,,CLR,0.00,VWS V14.01,2013-01-07 05:40:00,
2013-01-06 23:50:00,27.5,22.1,29.94,South,184,25.0,32.5,80,0.00,,,0.00,VWS V14.01,2013-01-07 05:50:00,